Location: Shenandoah County Park
(38.9356°N, 78.4524°W)
Time: 03:55:03
(UTC-04:00)

ISS - Visible Passes

Search period start: 03 October 2023 00:00
Search period end: 13 October 2023 00:00
Orbit: 414 x 421 km, 51.6° (Epoch: 03 October)

Date Brightness Start Highest point End Pass type
(mag) Time Alt. Az. Time Alt. Az. Time Alt. Az.
03 Oct -3.8 19:31:14 10° NW 19:34:34 71° NE 19:37:53 10° ESE visible
03 Oct -0.7 21:09:49 10° WSW 21:10:50 11° SW 21:10:50 11° SW visible
04 Oct -1.4 20:20:24 10° W 20:22:55 20° SW 20:25:13 11° S visible
05 Oct -2.2 19:31:44 10° WNW 19:34:50 35° SW 19:37:55 10° SSE visible
07 Oct -0.6 19:33:23 10° WSW 19:34:43 12° SW 19:36:03 10° SSW visible
